Regional Weather Roundup
Issued by NWS Charleston, SC

Current Version | Previous Version | Graphics & Text | Print | Product List | Glossary On
Versions: 1 2 3 4 5 6 7 8 9 10 11 12 13 14 15 16 17 18 19 20 21 22 23 24 25 26 27 28 29 30 31 32 33 34 35 36 37 38 39 40 41 42 43 44 45 46 47 48 49 50
000
ASUS42 KCHS 301610
RWRCHS
REGIONAL WEATHER ROUNDUP
NATIONAL WEATHER SERVICE CHARLESTON SC
1200 PM EDT TUE SEP 30 2014

NOTE: "FAIR" INDICATES FEW OR NO CLOUDS BELOW 12,000 FEET WITH NO
SIGNIFICANT WEATHER AND/OR OBSTRUCTIONS TO VISIBILITY.

NOT ALL STATIONS ARE QUALITY CONTROLLED BY THE NATIONAL
WEATHER SERVICE. USE DATA WITH CAUTION...ESPECIALLY
DEWPOINT OBSERVATIONS.

SCZ027-030-031-034>040-042>050-301700-
...SOUTH CAROLINA...

CITY           SKY/WX    TMP DP  RH WIND       PRES   REMARKS
N CHARLESTON   MOSUNNY   78  62  57 N8        29.90F
WATERFRONT PRK NOT AVBL
FORT JOHNSON   NOT AVBL
MOUNT PLEASANT FAIR      75  64  69 NE7       29.90S
JOHNS ISLAND     N/A     75  75 100 N10       29.90S
PINOPOLIS        N/A     72  63  73 VRB7      29.83F
MONCKS CORNER  FAIR      75  66  73 N5        29.91F
SUMMERVILLE    FAIR      77  63  61 NE8       29.92F
BEAUFORT MCAS  MOSUNNY   77  65  66 N9        29.90F
BEAUFORT ARPT  PTSUNNY   73  64  73 N10       29.90F
HILTON HEAD IS MOSUNNY   72  64  78 N9G16     29.91F
GEORGETOWN     NOT AVBL
WALTERBORO     SUNNY     77  57  50 NE7       29.92F
ORANGEBURG     SUNNY     77  56  48 NE8       29.93F
BARNWELL       FAIR      75  61  60 E8        29.94F
AIKEN          FAIR      77  63  61 N7        29.97F
MANNING        FAIR      77  63  61 NE6       29.92F
KINGSTREE      NOT AVBL
COLUMBIA       SUNNY     78  57  48 VRB3      29.92F
SUMTER         SUNNY     76  58  53 N3        29.91F
FLORENCE       MOSUNNY   76  64  66 VRB7      29.92F
MYRTLE BEACH   SUNNY     77  63  61 NE12      29.90F
N MYRTLE BEACH SUNNY     77  62  59 N12       29.89F

$$

GAZ063-065-086>088-099>101-113>116-118-119-134-136>141-150-301700-
...GEORGIA...

CITY           SKY/WX    TMP DP  RH WIND       PRES   REMARKS
SAVANNAH ARPT  CLOUDY    73  65  75 NW6       29.92S
HUNTER AAF     CLOUDY    73  68  83 N10       29.89S
FORT STEWART   CLOUDY    69  65  88 N6        29.91S
STATESBORO     NOT AVBL
SYLVANIA       SUNNY     77  68  72 E9        29.93F
CLAXTON        CLOUDY    72  66  83 N5        29.93S
THOMSON        SUNNY     76  68  77 N5        29.99S
AUGUSTA-BUSH   SUNNY     76  61  59 E6        29.93F
AUGUSTA-DANIEL SUNNY     76  61  59 N7        29.94F
SWAINSBORO     CLOUDY    77  68  73 N8        29.94F
VIDALIA        CLOUDY    75  66  73 NE6       29.93F
ALMA           CLOUDY    72  67  84 VRB5      29.92S
WAYCROSS       CLOUDY    75  72  89 N3        29.92R
JESUP          CLOUDY    75  70  83 NE6       29.92S
BRUNSWICK      CLOUDY    73  70  88 N5        29.90S
SAINT SIMONS   CLOUDY    74  68  81 N8        29.89S

$$

SCZ027-028-034-036>038-045-046-048>050-GAZ119-141-301700-
...LAKE AND SUPPLEMENTAL COASTAL OBSERVATIONS...

STATION/POSITION TIME  TEMP    WIND        PRES    WAVE   SWELL
                       AIR SEA DIR/SP/G            HT/PER HT/PER/DIR
                 (UTC) (F)     (DEG/KT/KT) (MB)    (FT/S) (FT/S/D)
UPR LAKE MARION  NOT AVBL
WINYAH BAY       1500   72      20/  7     1012.0S
LAKE MURRAY      1500   75      CALM  /  4 1013.2F
ACE BASIN NERRS  1500   71      10/  3     1013.0S
FORT PULASKI     1600   72     350/  8/ 11 1012.7S
SAPELO ISLAND    NOT AVBL

$$

ANZ835-935-AMZ111-154-330-350-352-354-374-450-454-472-301700-
...C-MAN AND BUOY OBSERVATIONS...

STATION/POSITION TIME  TEMP    WIND        PRES    WAVE   SWELL
                       AIR SEA DIR/SP/G            HT/PER HT/PER/DIR
                 (UTC) (F)     (DEG/KT/KT) (MB)    (FT/S) (FT/S/D)
FOLLY BEACH CMAN 1500   72      10/  9/ 11 1012.7F
BUOY 41004       1600   75 81   10/ 17/ 21 1010.4F   4/ 6   2/15
BUOY 41008       1600   73 79   20/ 16/ 19 1011.5S   4/ 6
5E ST. MARYS GA  1600      79                N/A     5/ 6
FRYING PAN BUOY  NOT AVBL
BUOY 41025       1600   74      10/ 14/ 16 1011.3F   4/ 5   2/ 70/ 8
CAPE LOOKOUT NC  1500   72      10/ 13/ 16 1011.8F
BUOY 41002       1459   74 80  150/ 14/ 17 1010.2F   3/ 8   2/ 70/ 8
BUOY 41010       1600   82 84  280/ 19/ 21 1009.9F   3/ 8   2/100/ 8
BUOY 41012       NOT AVBL
ST AUGUSTINE FL  1600   75     320/  8/  9 1012.0R
CAPERS NEARSHORE 1500   71      20/ 12/ 16   N/A
FRIPP NEARSHORE  NOT AVBL


$$


USA.gov is the U.S. government's official web portal to all federal, state and local government web resources and services.